Little Rock, AR

4:25 AM CDT on October 18, 2017 (GMT -0500)
Adams

Weather History for KLIT - November, 2013

Change the Weather History Date:

Saturday, November 2, 2013

  Actual Average Record
Temperature  
Mean Temperature 55 °F 58 °F  
Max Temperature 65 °F 68 °F 83 °F (2003)
Min Temperature 44 °F 49 °F 27 °F (1991)
Degree Days  
Heating Degree Days 10 8  
Month to date heating degree days 14 16  
Since 1 July heating degree days 128 151  
Cooling Degree Days 0 1  
Month to date cooling degree days 0 2  
Year to date cooling degree days 2194 2160  
Growing Degree Days 4 (Base 50)    
Moisture  
Dew Point 39 °F    
Average Humidity 56    
Maximum Humidity 76    
Minimum Humidity 36    
Precipitation  
Precipitation 0.00 in 0.16 in 1.39 in (1982)
Month to date precipitation 0.00 0.32  
Year to date precipitation 41.12 39.95  
Snow  
Snow 0.00 in 0.00 in - ()
Month to date snowfall 0.0 0.0  
Since 1 July snowfall 0.0 T  
Since 1 September snowfall 0.0 T  
Snow Depth 0.00 in    
Sea Level Pressure  
Sea Level Pressure 30.13 in    
Wind  
Wind Speed 8 mph (NW)    
Max Wind Speed 22 mph    
Max Gust Speed 29 mph    
Visibility 10 miles    
Events      
T = Trace of Precipitation, MM = Missing Value Source: NWS Daily Summary

Daily Weather History Graph

Daily Weather History Graph

Search for Another Location

Airport or City:

Trip Planner

Search our weather history database for the weather conditions in past years. The results will help you decide how hot, cold, wet, or windy it might be!

Date:

Astronomy

Nov. 02, 2013 Rise Set
Actual Time 7:30 AM CDT 6:13 PM CDT
Civil Twilight 7:04 AM CDT 6:39 PM CDT
Nautical Twilight 6:34 AM CDT 7:09 PM CDT
Astronomical Twilight 6:05 AM CDT 7:39 PM CDT
Moon 6:30 AM CDT (11/2) 5:44 PM CDT (11/2)
Length of Visible Light 11h 35m
Length of Day
10h 43m
Waning Crescent, 1% of the Moon is Illuminated
Nov 2
Waning Crescent
Nov 3
New
Nov 9
First Quarter
Nov 17
Full
Nov 25
Last Quarter

Hourly Weather History & Observations

Time (CDT) Temp. Dew Point Humidity Pressure Visibility Wind Dir Wind Speed Gust Speed Precip Events Conditions
12:53 AM 57.0 °F 44.1 °F 62% 29.97 in 10.0 mi NW 5.8 mph - N/A   Clear
1:53 AM 55.0 °F 43.0 °F 64% 29.99 in 10.0 mi NNW 6.9 mph - N/A   Clear
2:53 AM 55.0 °F 42.1 °F 62% 30.00 in 10.0 mi NW 6.9 mph - N/A   Clear
3:53 AM 54.0 °F 43.0 °F 66% 30.01 in 10.0 mi WNW 5.8 mph - N/A   Clear
4:53 AM 53.1 °F 43.0 °F 69% 30.02 in 10.0 mi WNW 8.1 mph - N/A   Clear
5:53 AM 54.0 °F 41.0 °F 62% 30.04 in 10.0 mi WNW 10.4 mph - N/A   Clear
6:53 AM 53.1 °F 41.0 °F 64% 30.06 in 10.0 mi NW 8.1 mph - N/A   Clear
7:53 AM 53.1 °F 39.9 °F 61% 30.08 in 10.0 mi NW 12.7 mph - N/A   Clear
8:53 AM 55.0 °F 39.0 °F 55% 30.12 in 10.0 mi NW 10.4 mph - N/A   Clear
9:53 AM 57.0 °F 37.9 °F 49% 30.14 in 10.0 mi NW 11.5 mph - N/A   Partly Cloudy
10:53 AM 59.0 °F 37.0 °F 44% 30.15 in 10.0 mi NNW 13.8 mph - N/A   Partly Cloudy
11:53 AM 60.1 °F 37.0 °F 42% 30.17 in 10.0 mi NNW 11.5 mph - N/A   Scattered Clouds
12:53 PM 62.1 °F 37.9 °F 41% 30.17 in 10.0 mi NW 9.2 mph - N/A   Scattered Clouds
1:53 PM 62.1 °F 37.9 °F 41% 30.16 in 10.0 mi WNW 11.5 mph - N/A   Mostly Cloudy
2:53 PM 63.0 °F 36.0 °F 37% 30.14 in 10.0 mi WNW 10.4 mph - N/A   Mostly Cloudy
3:53 PM 63.0 °F 35.1 °F 35% 30.14 in 10.0 mi NNW 11.5 mph - N/A   Scattered Clouds
4:53 PM 61.0 °F 35.1 °F 38% 30.15 in 10.0 mi NW 11.5 mph - N/A   Scattered Clouds
5:53 PM 59.0 °F 35.1 °F 41% 30.16 in 10.0 mi North 9.2 mph - N/A   Partly Cloudy
6:53 PM 53.1 °F 36.0 °F 52% 30.18 in 10.0 mi North 6.9 mph - N/A   Clear
7:53 PM 52.0 °F 35.1 °F 53% 30.20 in 10.0 mi Variable 3.5 mph - N/A   Clear
8:53 PM 50.0 °F 36.0 °F 59% 30.23 in 10.0 mi NE 3.5 mph - N/A   Clear
9:53 PM 48.0 °F 36.0 °F 63% 30.24 in 10.0 mi NNE 3.5 mph - N/A   Clear
10:53 PM 46.0 °F 39.9 °F 79% 30.25 in 10.0 mi Calm Calm - N/A   Clear
11:53 PM 46.0 °F 39.9 °F 79% 30.25 in 10.0 mi Calm Calm - N/A   Clear